DW4075 Weather Reports


Display with metric or nautical units.
time (UTC)temp
F
wind
direction
speed
MPH
gust
MPH
rain 1hr
in
rain 24hr
in
rain mn
in
humidity
%
barometer
mb
20260507144534 48 42 3.0 7.0 0.00 0.00 0.00 56 1022.9
20260507143806 47 64 2.0 7.0 0.00 0.00 0.00 56 1022.5
20260507143307 47 71 2.0 7.0 0.00 0.00 0.00 58 1022.3
20260507143025 47 56 4.0 7.0 0.00 0.00 0.00 58 1022.2
20260507142306 46 56 4.0 8.0 0.00 0.00 0.00 57 1022.1
20260507141804 46 53 5.0 9.0 0.00 0.00 0.00 59 1021.9
20260507141300 45 51 5.0 10.0 0.00 0.00 0.00 60 1021.8
20260507140759 45 42 5.0 10.0 0.00 0.00 0.00 61 1021.6
20260507140258 44 44 4.0 8.0 0.00 0.00 0.00 63 1021.3
20260507135758 43 23 4.0 9.0 0.00 0.00 0.00 65 1021.0
20260507135255 42 47 4.0 9.0 0.00 0.00 0.00 66 1020.6
20260507134743 42 33 3.0 7.0 0.00 0.00 0.00 68 1020.4
20260507134242 41 34 3.0 7.0 0.00 0.00 0.00 70 1019.9
20260507133738 40 22 3.0 7.0 0.00 0.00 0.00 72 1019.4
20260507133238 39 9 2.0 6.0 0.00 0.00 0.00 75 1019.1
20260507132738 38 355 2.0 6.0 0.00 0.00 0.00 78 1018.7
20260507132238 37 355 2.0 6.0 0.00 0.00 0.00 81 1018.0
20260507131737 36 355 1.0 5.0 0.00 0.00 0.00 84 1017.6
20260507131235 34 355 1.0 5.0 0.00 0.00 0.00 87 1017.0
20260507130733 33 355 0.0 4.0 0.00 0.00 0.00 89 1016.3
20260507130232 31 355 0.0 3.0 0.00 0.00 0.00 91 1015.6
20260507125733 30 355 0.0 3.0 0.00 0.00 0.00 92 1014.9
20260507125231 29 355 0.0 2.0 0.00 0.00 0.00 90 1014.2
20260507124729 28 355 0.0 1.0 0.00 0.00 0.00 89 1013.8
20260507124224 27 355 0.0 2.0 0.00 0.00 0.00 88 1013.4
20260507123718 27 355 0.0 2.0 0.00 0.00 0.00 87 1013.2
20260507123211 26 355 0.0 1.0 0.00 0.00 0.00 86 1013.1
20260507122705 26 355 0.0 1.0 0.00 0.00 0.00 85 1012.9
20260507122201 26 355 1.0 2.0 0.00 0.00 0.00 84 1012.9
20260507121702 26 355 1.0 2.0 0.00 0.00 0.00 84 1012.8
20260507121200 26 355 0.0 2.0 0.00 0.00 0.00 83 1012.8
20260507120700 26 355 0.0 2.0 0.00 0.00 0.00 83 1012.9
20260507120153 26 355 1.0 3.0 0.00 0.00 0.00 83 1012.8
20260507115654 27 355 2.0 4.0 0.00 0.00 0.00 83 1012.9
20260507115147 27 355 2.0 4.0 0.00 0.00 0.00 84 1012.8
20260507114644 26 355 1.0 4.0 0.00 0.00 0.00 84 1012.7
20260507114142 26 355 1.0 3.0 0.00 0.00 0.00 84 1012.7
20260507113641 26 355 1.0 3.0 0.00 0.00 0.00 84 1012.7
20260507113402 27 355 1.0 2.0 0.00 0.00 0.00 83 1012.8
20260507112637 27 355 1.0 2.0 0.00 0.00 0.00 83 1012.9
20260507112136 27 355 1.0 2.0 0.00 0.00 0.00 83 1012.9
20260507111631 27 355 1.0 3.0 0.00 0.00 0.00 83 1012.8
20260507111131 27 355 2.0 5.0 0.00 0.00 0.00 84 1012.8
20260507110632 27 355 2.0 5.0 0.00 0.00 0.00 84 1012.6
20260507110132 27 355 1.0 4.0 0.00 0.00 0.00 84 1012.5
20260507105631 27 355 1.0 2.0 0.00 0.00 0.00 84 1012.6
20260507105131 27 355 1.0 2.0 0.00 0.00 0.00 84 1012.6
20260507104630 27 355 1.0 4.0 0.00 0.00 0.00 84 1012.5
20260507104126 28 355 2.0 4.0 0.00 0.00 0.00 85 1012.6
20260507103620 27 355 1.0 4.0 0.00 0.00 0.00 84 1012.6
20260507103118 27 355 0.0 2.0 0.00 0.00 0.00 83 1012.5
20260507102617 28 355 1.0 2.0 0.00 0.00 0.00 82 1012.8
20260507102118 28 355 1.0 2.0 0.00 0.00 0.00 83 1012.8
20260507101609 28 355 1.0 2.0 0.00 0.00 0.00 82 1012.9
20260507101108 28 355 1.0 2.0 0.00 0.00 0.00 83 1012.9
20260507100607 28 355 0.0 1.0 0.00 0.00 0.00 83 1012.9
20260507100104 28 355 0.0 0.0 0.00 0.00 0.00 83 1012.9
20260507095804 29 355 0.0 0.0 0.00 0.00 0.00 84 1013.3
20260507095757 29 355 0.0 0.0 0.00 0.00 0.00 84 1013.2
20260507094559 29 355 0.0 1.0 0.00 0.00 0.00 84 1013.2
20260507094057 29 355 0.0 1.0 0.00 0.00 0.00 84 1013.1
20260507093554 29 355 0.0 1.0 0.00 0.00 0.00 83 1012.9
20260507093051 29 355 0.0 1.0 0.00 0.00 0.00 82 1012.9
20260507092811 29 355 0.0 2.0 0.00 0.00 0.00 81 1012.9
20260507092043 29 355 0.0 2.0 0.00 0.00 0.00 80 1013.1
20260507091543 29 355 0.0 0.0 0.00 0.00 0.00 79 1013.1
20260507091040 29 355 0.0 0.0 0.00 0.00 0.00 80 1012.9
20260507090541 29 355 0.0 0.0 0.00 0.00 0.00 79 1013.1
20260507090031 30 355 0.0 2.0 0.00 0.00 0.00 79 1013.2
20260507085531 30 355 1.0 2.0 0.00 0.00 0.00 80 1013.2
20260507085030 30 355 0.0 2.0 0.00 0.00 0.00 81 1013.2
20260507084531 30 355 0.0 1.0 0.00 0.00 0.00 81 1013.1
20260507084027 30 355 0.0 0.0 0.00 0.00 0.00 80 1013.2
20260507083522 30 355 0.0 0.0 0.00 0.00 0.00 79 1013.2
20260507083019 30 355 0.0 0.0 0.00 0.00 0.00 78 1013.3
20260507082508 31 355 0.0 0.0 0.00 0.00 0.00 78 1013.6
20260507082005 31 355 0.0 1.0 0.00 0.00 0.00 79 1013.6
20260507081503 31 355 0.0 1.0 0.00 0.00 0.00 78 1013.4
20260507081003 31 355 0.0 1.0 0.00 0.00 0.00 78 1013.4
20260507080503 31 355 0.0 2.0 0.00 0.00 0.00 78 1013.4
20260507080222 31 355 1.0 2.0 0.00 0.00 0.00 79 1013.4
20260507075502 31 355 0.0 2.0 0.00 0.00 0.00 79 1013.4
20260507075220 31 355 0.0 2.0 0.00 0.00 0.00 79 1013.4
20260507074454 31 355 0.0 0.0 0.00 0.00 0.00 80 1013.3
20260507073939 31 355 0.0 0.0 0.00 0.00 0.00 78 1013.3
20260507073432 31 355 0.0 0.0 0.00 0.00 0.00 78 1013.2
20260507072931 31 355 0.0 0.0 0.00 0.00 0.00 77 1013.4
20260507072411 31 355 0.0 0.0 0.00 0.00 0.00 76 1013.4
20260507071904 32 355 0.0 0.0 0.00 0.00 0.00 76 1013.4
20260507071623 32 355 0.0 0.0 0.00 0.00 0.00 76 1013.7
20260507070904 32 355 0.0 0.0 0.00 0.00 0.00 76 1013.7
20260507070403 33 355 0.0 0.0 0.00 0.00 0.00 74 1013.8
20260507070118 33 355 0.0 0.0 0.00 0.00 0.00 75 1013.8
20260507065605 33 355 0.0 3.0 0.00 0.00 0.00 76 1013.9
20260507064837 33 355 0.0 3.0 0.00 0.00 0.00 75 1013.9
20260507064334 33 355 0.0 2.0 0.00 0.00 0.00 76 1013.9
20260507063832 33 355 0.0 1.0 0.00 0.00 0.00 74 1013.8
20260507063330 34 355 0.0 0.0 0.00 0.00 0.00 72 1013.9
20260507063046 34 355 0.0 1.0 0.00 0.00 0.00 72 1014.0
20260507062319 34 355 0.0 1.0 0.00 0.00 0.00 72 1013.9
20260507061818 34 355 0.0 0.0 0.00 0.00 0.00 73 1013.9
20260507061317 35 355 0.0 0.0 0.00 0.00 0.00 73 1014.0
20260507060810 35 355 0.0 0.0 0.00 0.00 0.00 72 1014.0
20260507060304 35 355 1.0 0.0 0.00 0.00 0.00 71 1014.2
20260507060026 36 355 1.0 1.0 0.00 0.00 0.00 70 1014.5
20260507055646 36 355 0.0 1.0 0.00 0.00 0.00 70 1014.4
20260507055634 37 355 0.0 2.0 0.00 0.00 0.00 71 1014.5
20260507054303 37 355 0.0 2.0 0.00 0.00 0.00 70 1014.6
20260507054019 37 355 0.0 2.0 0.00 0.00 0.00 70 1014.5
20260507053516 37 355 1.0 2.0 0.00 0.00 0.00 70 1014.6
20260507053018 38 355 1.0 2.0 0.00 0.00 0.00 69 1014.8
20260507052250 38 355 0.0 3.0 0.00 0.00 0.00 69 1014.9
20260507051744 38 355 0.0 3.0 0.00 0.00 0.00 69 1015.1
20260507051242 38 355 0.0 4.0 0.00 0.00 0.00 70 1015.0
20260507050741 38 355 1.0 6.0 0.00 0.00 0.00 69 1015.0
20260507050239 39 355 1.0 6.0 0.00 0.00 0.00 68 1015.1
20260507045738 39 355 0.0 4.0 0.00 0.00 0.00 67 1015.3
20260507045506 39 355 0.0 4.0 0.00 0.00 0.00 66 1015.5
20260507044732 40 355 0.0 5.0 0.00 0.00 0.00 65 1015.5
20260507044504 40 355 0.0 5.0 0.00 0.00 0.00 65 1015.7
20260507043730 41 355 0.0 3.0 0.00 0.00 0.00 65 1015.9
20260507043224 41 355 0.0 3.0 0.00 0.00 0.00 64 1016.0
20260507042714 41 355 0.0 4.0 0.00 0.01 0.00 64 1016.2
20260507042212 42 355 0.0 4.0 0.00 0.01 0.00 64 1016.2
20260507041712 42 355 1.0 4.0 0.00 0.01 0.00 63 1016.5
20260507041211 42 355 1.0 4.0 0.00 0.01 0.00 62 1016.3
20260507040717 43 355 1.0 4.0 0.00 0.01 0.00 60 1016.6
20260507040209 43 355 0.0 3.0 0.00 0.01 0.00 61 1016.6
20260507035711 44 355 1.0 4.0 0.00 0.01 0.00 60 1016.7
20260507035206 44 355 1.0 5.0 0.00 0.01 0.00 60 1016.8
20260507034659 44 355 1.0 6.0 0.00 0.01 0.00 59 1017.0
20260507034148 45 355 2.0 6.0 0.00 0.01 0.00 58 1017.0
20260507033653 45 355 2.0 6.0 0.00 0.01 0.00 57 1017.1
20260507033151 45 355 3.0 9.0 0.00 0.01 0.00 56 1017.2
20260507032648 46 0 3.0 9.0 0.00 0.01 0.00 56 1017.2
20260507032144 46 5 4.0 8.0 0.00 0.01 0.00 55 1017.2
20260507031644 46 5 4.0 8.0 0.00 0.01 0.00 55 1017.3
20260507031138 47 15 4.0 9.0 0.00 0.01 0.00 54 1017.4
20260507030634 47 19 4.0 9.0 0.00 0.01 0.00 53 1017.3
20260507030133 47 24 3.0 9.0 0.00 0.01 0.00 51 1017.3
20260507025635 47 5 3.0 9.0 0.00 0.01 0.00 48 1017.2
20260507025131 47 252 3.0 6.0 0.00 0.01 0.00 40 1017.0
20260507024632 47 249 4.0 6.0 0.00 0.01 0.00 42 1016.5
20260507024131 47 248 3.0 6.0 0.00 0.01 0.00 47 1016.3
20260507023631 47 248 2.0 5.0 0.00 0.01 0.00 46 1016.2
20260507023131 47 248 2.0 5.0 0.00 0.01 0.00 46 1016.3
20260507022631 48 248 2.0 5.0 0.00 0.01 0.00 45 1016.6
20260507022625 49 248 2.0 5.0 0.00 0.01 0.00 44 1016.7
20260507021619 49 248 1.0 4.0 0.00 0.01 0.00 43 1016.8
20260507021116 50 248 1.0 4.0 0.00 0.01 0.00 43 1017.1
20260507020613 50 248 2.0 4.0 0.00 0.01 0.00 42 1017.2
20260507020112 51 248 2.0 4.0 0.00 0.01 0.00 42 1017.3
20260507015606 51 248 1.0 4.0 0.00 0.01 0.00 41 1017.4
20260507015103 52 248 1.0 4.0 0.00 0.01 0.00 40 1017.7
20260507014604 52 248 1.0 5.0 0.00 0.01 0.00 40 1017.7
20260507014103 53 248 2.0 8.0 0.00 0.01 0.00 39 1017.9
20260507013828 53 248 4.0 10.0 0.00 0.01 0.00 39 1018.0
20260507013103 54 219 4.0 10.0 0.00 0.01 0.00 38 1018.3
20260507012603 54 261 3.0 8.0 0.00 0.01 0.00 38 1018.2
20260507012327 54 275 3.0 8.0 0.00 0.01 0.00 38 1018.2
20260507011822 55 290 4.0 8.0 0.00 0.01 0.00 37 1018.3
20260507011103 55 273 5.0 9.0 0.00 0.01 0.00 37 1018.5
20260507010602 55 281 6.0 13.0 0.00 0.01 0.00 36 1018.5
20260507010105 56 312 7.0 13.0 0.00 0.01 0.00 36 1018.7
20260507005602 56 281 7.0 16.0 0.00 0.01 0.00 35 1018.5
20260507005103 56 277 9.0 19.0 0.00 0.01 0.00 35 1018.7
20260507004602 57 271 10.0 19.0 0.00 0.01 0.00 34 1019.0
20260507004103 56 313 11.0 22.0 0.00 0.01 0.00 33 1018.9
20260507003603 56 313 13.0 23.0 0.00 0.01 0.00 32 1018.9
20260507003102 57 301 13.0 23.0 0.00 0.01 0.00 30 1019.0
20260507002603 59 279 11.0 23.0 0.00 0.01 0.00 29 1019.5
20260507002103 60 304 12.0 24.0 0.00 0.01 0.00 30 1019.7
20260507001603 60 301 13.0 24.0 0.00 0.01 0.00 30 1019.5
20260507001102 60 254 12.0 26.0 0.00 0.01 0.00 31 1019.5
20260507000556 61 312 13.0 26.0 0.00 0.01 0.00 29 1019.9
20260507000045 61 297 13.0 22.0 0.00 0.01 0.00 29 1019.7
20260506235545 61 303 10.0 20.0 0.00 0.01 0.00 29 1019.6
20260506235037 62 271 7.0 13.0 0.00 0.01 0.00 28 1019.6
20260506234733 63 302 9.0 14.0 0.00 0.01 0.00 30 1020.0
20260506234728 63 259 7.0 13.0 0.00 0.01 0.00 28 1020.1
20260506233535 62 317 9.0 19.0 0.00 0.01 0.00 30 1019.4
20260506233035 61 278 9.0 19.0 0.00 0.01 0.00 30 1018.9
20260506232533 61 286 8.0 18.0 0.00 0.01 0.00 30 1019.0
20260506232032 63 313 8.0 18.0 0.00 0.01 0.00 29 1019.5
20260506231531 63 271 8.0 16.0 0.00 0.01 0.00 30 1019.5
20260506231030 63 276 9.0 19.0 0.00 0.01 0.00 31 1019.4
20260506230533 62 237 11.0 22.0 0.00 0.01 0.00 31 1019.3
20260506230031 62 285 13.0 22.0 0.00 0.01 0.00 30 1019.1
20260506225531 63 294 12.0 22.0 0.00 0.01 0.00 30 1019.5
20260506225031 64 319 10.0 20.0 0.00 0.01 0.00 31 1019.7
20260506224531 63 292 11.0 20.0 0.00 0.01 0.00 33 1019.6
20260506224029 63 304 11.0 20.0 0.00 0.01 0.00 33 1019.3
20260506223519 62 313 10.0 23.0 0.00 0.01 0.00 35 1018.8
20260506223018 61 277 9.0 23.0 0.00 0.01 0.00 36 1018.5
20260506222516 61 244 10.0 21.0 0.00 0.01 0.00 37 1018.5
20260506222017 60 248 11.0 22.0 0.00 0.01 0.00 39 1018.2
20260506221515 59 259 8.0 22.0 0.00 0.01 0.00 40 1017.8
20260506221013 57 277 7.0 16.0 0.00 0.01 0.00 48 1017.3
20260506220512 55 244 9.0 16.0 0.00 0.01 0.00 51 1016.1
20260506220010 53 296 10.0 19.0 0.00 0.01 0.00 50 1015.5
20260506215505 54 289 13.0 23.0 0.00 0.01 0.00 52 1015.7
20260506215004 54 282 14.0 25.0 0.00 0.01 0.00 47 1015.7
20260506214503 55 304 15.0 25.0 0.00 0.01 0.00 53 1016.3
20260506214001 58 311 14.0 25.0 0.00 0.01 0.00 43 1017.4
20260506213455 62 288 12.0 22.0 0.00 0.01 0.00 38 1018.8
20260506212944 65 263 10.0 22.0 0.00 0.01 0.00 30 1019.5
20260506212443 65 226 9.0 20.0 0.00 0.01 0.00 31 1019.3
20260506212159 63 209 8.0 20.0 0.00 0.01 0.00 31 1018.4
20260506211700 63 192 8.0 15.0 0.00 0.01 0.00 32 1018.4
20260506211156 64 263 10.0 21.0 0.00 0.01 0.00 30 1018.8
20260506210441 65 225 11.0 21.0 0.00 0.01 0.00 30 1019.1
20260506210202 64 274 10.0 18.0 0.00 0.01 0.00 30 1019.1
20260506205438 64 291 8.0 22.0 0.00 0.01 0.00 30 1018.8
20260506204936 64 281 8.0 19.0 0.00 0.01 0.00 31 1018.8
20260506204434 63 224 9.0 16.0 0.00 0.01 0.00 30 1018.5
20260506203932 64 261 7.0 16.0 0.00 0.01 0.00 31 1018.7
20260506203654 62 234 6.0 14.0 0.00 0.01 0.00 35 1018.2
20260506202932 61 257 8.0 16.0 0.00 0.01 0.00 34 1017.7
20260506202433 61 317 7.0 16.0 0.00 0.01 0.00 33 1017.6
20260506201932 61 302 7.0 19.0 0.00 0.01 0.00 34 1017.6
20260506201654 60 275 8.0 19.0 0.00 0.01 0.00 34 1017.3
20260506200934 61 286 6.0 14.0 0.00 0.01 0.00 33 1017.6
20260506200431 61 249 6.0 14.0 0.00 0.01 0.00 34 1017.6
20260506200123 62 294 7.0 14.0 0.00 0.01 0.00 38 1018.2
20260506200115 62 244 5.0 10.0 0.00 0.01 0.00 34 1018.0
20260506195629 62 294 5.0 11.0 0.00 0.01 0.00 37 1018.2
20260506194416 61 295 7.0 14.0 0.00 0.01 0.00 38 1018.0
20260506194400 60 315 6.0 13.0 0.00 0.01 0.00 39 1017.7
20260506193415 60 355 7.0 14.0 0.00 0.01 0.00 39 1017.8
20260506192912 61 341 7.0 15.0 0.00 0.01 0.00 37 1018.4
20260506192412 62 259 8.0 18.0 0.00 0.01 0.00 34 1018.7
20260506191910 64 311 9.0 18.0 0.00 0.01 0.00 33 1019.1
20260506191409 63 243 9.0 16.0 0.00 0.01 0.00 36 1018.9
20260506190910 62 254 10.0 20.0 0.00 0.01 0.00 35 1018.7
20260506190407 61 288 9.0 20.0 0.00 0.01 0.00 35 1018.3
20260506185908 60 266 8.0 15.0 0.00 0.01 0.00 37 1017.6
20260506185407 59 261 9.0 16.0 0.00 0.01 0.00 37 1017.3
20260506184908 60 299 9.0 16.0 0.00 0.01 0.00 35 1017.8
20260506184403 60 293 9.0 20.0 0.00 0.01 0.00 36 1017.8
20260506183904 59 238 9.0 20.0 0.00 0.01 0.00 37 1017.6
20260506183403 59 207 10.0 19.0 0.00 0.01 0.00 39 1017.4
20260506182904 58 218 8.0 19.0 0.00 0.01 0.00 37 1017.1
20260506182404 58 284 7.0 15.0 0.00 0.01 0.00 37 1017.3
20260506181903 58 296 7.0 15.0 0.00 0.01 0.00 37 1017.1
20260506181403 58 281 8.0 16.0 0.00 0.01 0.00 38 1017.1
20260506180903 58 271 7.0 16.0 0.00 0.01 0.00 37 1017.1
20260506180404 58 238 6.0 12.0 0.00 0.01 0.00 38 1017.2
20260506175903 58 267 7.0 15.0 0.00 0.01 0.00 37 1017.0
20260506175403 58 290 6.0 15.0 0.00 0.01 0.00 38 1017.1
20260506174903 57 294 6.0 14.0 0.00 0.01 0.00 39 1017.0
20260506174627 57 244 8.0 14.0 0.00 0.01 0.00 40 1016.7
20260506174121 57 273 7.0 14.0 0.00 0.01 0.00 41 1016.6
20260506173356 57 217 6.0 14.0 0.00 0.01 0.00 44 1016.7
20260506173115 57 192 6.0 19.0 0.00 0.01 0.00 43 1016.7
20260506172344 58 258 8.0 19.0 0.00 0.01 0.00 42 1017.1
20260506172110 59 194 8.0 19.0 0.00 0.01 0.00 42 1017.4
20260506171342 59 190 7.0 14.0 0.00 0.01 0.00 44 1017.6
20260506170841 59 185 6.0 13.0 0.00 0.01 0.00 43 1017.3
20260506170340 58 273 8.0 16.0 0.00 0.01 0.00 42 1017.1
20260506165841 58 279 9.0 22.0 0.00 0.01 0.00 39 1017.0
20260506165338 59 275 7.0 22.0 0.00 0.01 0.00 40 1017.3
20260506164837 59 241 5.0 12.0 0.00 0.01 0.00 41 1017.2
20260506164556 58 219 6.0 14.0 0.00 0.01 0.00 43 1017.1
20260506163833 58 221 7.0 14.0 0.00 0.01 0.00 44 1017.1
20260506163330 58 215 7.0 13.0 0.00 0.01 0.00 45 1016.8
20260506162831 57 150 6.0 13.0 0.00 0.01 0.00 45 1016.6
20260506162332 56 217 6.0 13.0 0.00 0.01 0.00 46 1016.1
20260506162055 56 130 6.0 13.0 0.00 0.01 0.00 48 1016.2
20260506161331 55 137 4.0 9.0 0.00 0.01 0.00 48 1016.0
20260506160831 54 160 4.0 10.0 0.00 0.01 0.00 49 1015.7
20260506160331 55 251 5.0 10.0 0.00 0.01 0.00 48 1015.9
20260506155830 55 225 4.0 10.0 0.00 0.01 0.00 47 1015.9
20260506155331 55 259 5.0 10.0 0.00 0.01 0.00 49 1015.9
20260506155100 55 123 5.0 9.0 0.00 0.01 0.00 48 1015.7
20260506154325 55 155 5.0 12.0 0.00 0.01 0.00 50 1015.9
20260506153823 54 184 5.0 12.0 0.00 0.01 0.00 53 1015.9
20260506153322 53 246 5.0 11.0 0.00 0.01 0.00 55 1015.6
20260506153044 53 238 6.0 12.0 0.00 0.01 0.00 54 1015.5
20260506152319 53 217 5.0 12.0 0.00 0.01 0.00 56 1015.3
20260506151817 52 192 5.0 11.0 0.00 0.01 0.00 58 1014.9
20260506151317 51 233 5.0 12.0 0.00 0.01 0.00 60 1014.6
20260506150816 51 224 5.0 12.0 0.00 0.01 0.00 59 1014.5
20260506150316 51 234 4.0 11.0 0.00 0.01 0.00 61 1014.5
20260506150044 50 216 5.0 11.0 0.00 0.01 0.00 63 1014.4
20260506145812 50 193 6.0 12.0 0.00 0.01 0.00 62 1014.2
20260506144813 49 202 6.0 12.0 0.00 0.01 0.00 64 1014.0